Location: Maccacari
(45.1333°N, 11.1333°E)
Time: 04:33:36
(UTC+00:00)

S-56A Canister/Altair - Pass Details

Date: 27 June 2021
Orbit: 631 x 2501 km, 38.9° (Epoch: 03 August)

Event Time Altitude Azimuth Distance (km) Brightness Sun altitude
Exits shadow 00:49:10 19° 149° (SSE) 1,685 8.9 -18.5°
Drops below altitude 10° 00:51:57 10° 112° (ESE) 2,093 9.8 -18.3°
Sets 00:54:39 0° 94° (E) 2,933 10.8 -18.1°
